Change the Weather History Date:

Thursday, August 30, 2012

  Actual Average Record
Temperature  
Mean Temperature 66 °F -  
Max Temperature 81 °F 75 °F 90 °F (2010)
Min Temperature 50 °F 58 °F 48 °F (2014)
Growing Degree Days 16 (Base 50)    
Moisture  
Dew Point 54 °F    
Average Humidity 67    
Maximum Humidity 93    
Minimum Humidity 30    
Precipitation  
Precipitation 0.00 in - - ()
Sea Level Pressure  
Sea Level Pressure 30.07 in    
Wind  
Wind Speed 3 mph (West)    
Max Wind Speed 10 mph    
Max Gust Speed -    
Visibility 10 miles    
Events      
Averages and records for this station are not official NWS values.
T = Trace of Precipitation, MM = Missing Value Source: NWS Daily Summary

Daily Weather History Graph

Daily Weather History Graph

Search for Another Location

Airport or City:

Trip Planner

Search our weather history database for the weather conditions in past years. The results will help you decide how hot, cold, wet, or windy it might be!

Date:

Astronomy

Aug. 30, 2012 Rise Set
Actual Time 6:15 AM EDT 7:25 PM EDT
Civil Twilight 5:47 AM EDT 7:53 PM EDT
Nautical Twilight 5:13 AM EDT 8:27 PM EDT
Astronomical Twilight 4:38 AM EDT 9:02 PM EDT
Moon 6:38 PM EDT (8/30) 5:13 AM EDT (8/30)
Length of Visible Light 14h 05m
Length of Day
13h 09m
Waxing Gibbous, 99% of the Moon is Illuminated
Aug 30
Waxing Gibbous
Aug 31
Full
Sep 8
Last Quarter
Sep 15
New
Sep 22
First Quarter

Hourly Weather History & Observations

Time (EDT) Temp. Dew Point Humidity Pressure Visibility Wind Dir Wind Speed Gust Speed Precip Events Conditions
12:53 AM 53.1 °F 48.0 °F 83% 30.04 in 10.0 mi Calm Calm - N/A   Clear
1:53 AM 51.1 °F 46.9 °F 86% 30.03 in 10.0 mi Calm Calm - N/A   Clear
2:53 AM 50.0 °F 46.0 °F 86% 30.04 in 10.0 mi Calm Calm - N/A   Clear
3:53 AM 51.1 °F 46.9 °F 86% 30.04 in 10.0 mi Calm Calm - N/A   Clear
4:53 AM 50.0 °F 46.9 °F 89% 30.04 in 10.0 mi NW 4.6 mph - N/A   Clear
5:53 AM 50.0 °F 46.9 °F 89% 30.04 in 10.0 mi Calm Calm - N/A   Clear
6:53 AM 51.1 °F 48.0 °F 89% 30.07 in 10.0 mi Calm Calm - N/A   Clear
7:53 AM 62.1 °F 55.0 °F 78% 30.09 in 10.0 mi Calm Calm - N/A   Clear
8:53 AM 71.1 °F 53.1 °F 53% 30.09 in 10.0 mi North 5.8 mph - N/A   Clear
9:53 AM 73.9 °F 52.0 °F 46% 30.10 in 10.0 mi NNW 6.9 mph - N/A   Clear
10:53 AM 75.0 °F 54.0 °F 48% 30.10 in 10.0 mi NW 5.8 mph - N/A   Clear
11:53 AM 75.9 °F 50.0 °F 40% 30.11 in 10.0 mi Variable 5.8 mph - N/A   Clear
12:53 PM 77.0 °F 55.0 °F 47% 30.09 in 10.0 mi SW 8.1 mph - N/A   Clear
1:53 PM 78.1 °F 55.0 °F 45% 30.09 in 10.0 mi WSW 10.4 mph - N/A   Clear
2:53 PM 78.1 °F 57.0 °F 48% 30.07 in 10.0 mi SW 9.2 mph - N/A   Clear
3:53 PM 78.1 °F 57.9 °F 50% 30.06 in 10.0 mi SW 8.1 mph - N/A   Clear
4:53 PM 81.0 °F 46.9 °F 30% 30.06 in 10.0 mi West 9.2 mph - N/A   Clear
5:53 PM 79.0 °F 55.9 °F 45% 30.06 in 10.0 mi West 6.9 mph - N/A   Clear
6:53 PM 75.0 °F 57.0 °F 53% 30.06 in 10.0 mi SW 8.1 mph - N/A   Clear
7:53 PM 72.0 °F 63.0 °F 73% 30.06 in 10.0 mi SW 9.2 mph - N/A   Clear
8:53 PM 71.1 °F 64.0 °F 78% 30.07 in 10.0 mi WSW 6.9 mph - N/A   Clear
9:53 PM 71.1 °F 64.9 °F 81% 30.06 in 10.0 mi WSW 8.1 mph - N/A   Clear
10:53 PM 62.1 °F 59.0 °F 90% 30.06 in 10.0 mi WNW 3.5 mph - N/A   Clear
11:53 PM 60.1 °F 57.9 °F 93% 30.05 in 9.0 mi Calm Calm - N/A   Clear